| time (UTC) | temp F | wind direction | speed MPH | gust MPH | rain 1hr in | rain 24hr in | rain mn in | humidity % | barometer mb |
| 20260904034036 | 51 | 0.0 | 0.0 | 0.00 | 0.20 | 0.03 | 99 | 999.6 | |
| 20260904033100 | 51 | 0.0 | 0.0 | 0.00 | 0.22 | 0.03 | 99 | 999.5 | |
| 20260904032124 | 51 | 0.0 | 0.0 | 0.00 | 0.24 | 0.03 | 99 | 999.6 | |
| 20260904031037 | 51 | 0.0 | 0.0 | 0.00 | 0.28 | 0.03 | 99 | 999.6 | |
| 20260904030100 | 51 | 0.0 | 0.0 | 0.00 | 0.31 | 0.03 | 99 | 999.7 | |
| 20260904025124 | 51 | 0.0 | 0.0 | 0.00 | 0.34 | 0.03 | 99 | 1000.1 | |
| 20260904024036 | 51 | 0.0 | 0.0 | 0.00 | 0.36 | 0.03 | 99 | 999.9 | |
| 20260904023100 | 51 | 0.0 | 0.0 | 0.00 | 0.38 | 0.03 | 99 | 1000.1 | |
| 20260904022123 | 51 | 0.0 | 0.0 | 0.00 | 0.40 | 0.03 | 99 | 1000.2 | |
| 20260904021035 | 52 | 0.0 | 0.0 | 0.00 | 0.41 | 0.03 | 99 | 1000.0 | |
| 20260904020059 | 52 | 0.0 | 0.0 | 0.00 | 0.43 | 0.03 | 99 | 1000.4 | |
| 20260904015123 | 52 | 0.0 | 0.0 | 0.00 | 0.44 | 0.03 | 99 | 1000.3 | |
| 20260904014055 | 52 | 0.0 | 0.0 | 0.00 | 0.46 | 0.03 | 99 | 1000.3 | |
| 20260904013059 | 52 | 0.0 | 0.0 | 0.00 | 0.47 | 0.03 | 99 | 1000.4 | |
| 20260904012123 | 52 | 0.0 | 0.0 | 0.00 | 0.48 | 0.03 | 99 | 1000.5 | |
| 20260904011035 | 52 | 0.0 | 0.0 | 0.00 | 0.50 | 0.03 | 99 | 1000.4 | |
| 20260904010059 | 52 | 0.0 | 0.0 | 0.01 | 0.51 | 0.03 | 99 | 1000.5 | |
| 20260904005123 | 52 | 0.0 | 0.0 | 0.01 | 0.53 | 0.03 | 99 | 1000.7 | |
| 20260904004055 | 52 | 158 | 1.0 | 2.0 | 0.01 | 0.54 | 0.03 | 99 | 1000.9 |
| 20260904003059 | 52 | 0.0 | 0.0 | 0.01 | 0.54 | 0.03 | 99 | 1000.9 | |
| 20260904002123 | 52 | 0.0 | 0.0 | 0.01 | 0.54 | 0.03 | 99 | 1001.0 | |
| 20260904001035 | 52 | 0.0 | 0.0 | 0.00 | 0.53 | 0.02 | 99 | 1001.0 | |
| 20260904000059 | 52 | 0.0 | 0.0 | 0.02 | 0.54 | 0.02 | 99 | 1001.1 | |
| 20260903235123 | 52 | 0.0 | 0.0 | 0.02 | 0.54 | 0.02 | 99 | 1001.0 | |
| 20260903234036 | 52 | 0.0 | 0.0 | 0.02 | 0.54 | 0.02 | 99 | 1001.2 | |
| 20260903233059 | 52 | 0.0 | 0.0 | 0.01 | 0.53 | 0.01 | 99 | 1001.2 | |
| 20260903232123 | 52 | 153 | 1.0 | 2.0 | 0.01 | 0.53 | 0.01 | 99 | 1001.2 |
| 20260903231035 | 52 | 0.0 | 0.0 | 0.01 | 0.53 | 0.01 | 99 | 1001.2 | |
| 20260903230100 | 52 | 0.0 | 0.0 | 0.02 | 0.52 | 0.52 | 99 | 1001.3 | |
| 20260903225123 | 52 | 0.0 | 0.0 | 0.02 | 0.52 | 0.52 | 99 | 1001.4 | |
| 20260903224035 | 52 | 0.0 | 0.0 | 0.01 | 0.51 | 0.51 | 99 | 1001.2 | |
| 20260903223059 | 52 | 0.0 | 0.0 | 0.01 | 0.51 | 0.51 | 99 | 1001.4 | |
| 20260903222123 | 52 | 0.0 | 0.0 | 0.01 | 0.51 | 0.51 | 99 | 1001.4 | |
| 20260903221036 | 52 | 0.0 | 0.0 | 0.01 | 0.51 | 0.51 | 99 | 1001.4 | |
| 20260903220059 | 52 | 0.0 | 0.0 | 0.00 | 0.50 | 0.50 | 99 | 1001.3 | |
| 20260903215143 | 52 | 0.0 | 0.0 | 0.00 | 0.50 | 0.50 | 98 | 1001.5 | |
| 20260903214035 | 52 | 0.0 | 0.0 | 0.00 | 0.50 | 0.50 | 98 | 1001.3 | |
| 20260903213120 | 53 | 0.0 | 0.0 | 0.00 | 0.50 | 0.50 | 98 | 1001.5 | |
| 20260903212122 | 52 | 0.0 | 0.0 | 0.00 | 0.50 | 0.50 | 98 | 1001.3 | |
| 20260903211035 | 53 | 0.0 | 0.0 | 0.00 | 0.50 | 0.50 | 98 | 1001.4 | |
| 20260903210138 | 53 | 0.0 | 0.0 | 0.00 | 0.50 | 0.50 | 98 | 1001.4 | |
| 20260903205123 | 53 | 0.0 | 0.0 | 0.00 | 0.50 | 0.50 | 98 | 1001.4 | |
| 20260903204035 | 53 | 0.0 | 0.0 | 0.00 | 0.50 | 0.50 | 98 | 1001.5 | |
| 20260903203059 | 53 | 0.0 | 0.0 | 0.00 | 0.50 | 0.50 | 98 | 1001.6 | |
| 20260903202143 | 53 | 0.0 | 0.0 | 0.00 | 0.50 | 0.50 | 97 | 1001.6 | |
| 20260903201034 | 53 | 0.0 | 0.0 | 0.00 | 0.50 | 0.50 | 97 | 1001.8 | |
| 20260903200059 | 53 | 0.0 | 0.0 | 0.01 | 0.50 | 0.50 | 97 | 1001.5 | |
| 20260903195123 | 53 | 0.0 | 0.0 | 0.01 | 0.50 | 0.50 | 96 | 1001.6 | |
| 20260903194035 | 53 | 0.0 | 0.0 | 0.00 | 0.49 | 0.49 | 96 | 1001.8 | |
| 20260903193059 | 53 | 0.0 | 0.0 | 0.00 | 0.49 | 0.49 | 96 | 1001.7 | |
| 20260903192122 | 53 | 348 | 1.0 | 3.0 | 0.00 | 0.49 | 0.49 | 96 | 1001.8 |
| 20260903191055 | 53 | 0.0 | 0.0 | 0.00 | 0.49 | 0.49 | 96 | 1001.9 | |
| 20260903190059 | 53 | 0.0 | 0.0 | 0.00 | 0.49 | 0.49 | 96 | 1001.8 | |
| 20260903185123 | 53 | 0.0 | 0.0 | 0.00 | 0.49 | 0.49 | 97 | 1001.7 | |
| 20260903184035 | 53 | 0.0 | 0.0 | 0.00 | 0.49 | 0.49 | 97 | 1001.9 | |
| 20260903183037 | 53 | 0.0 | 0.0 | 0.00 | 0.49 | 0.49 | 97 | 1001.8 | |
| 20260903182101 | 53 | 0.0 | 0.0 | 0.00 | 0.49 | 0.49 | 96 | 1001.9 | |
| 20260903181125 | 53 | 300 | 0.0 | 1.0 | 0.00 | 0.49 | 0.49 | 95 | 1002.0 |
| 20260903180037 | 53 | 324 | 1.0 | 1.0 | 0.00 | 0.49 | 0.49 | 94 | 1001.8 |
| 20260903175101 | 53 | 0.0 | 0.0 | 0.00 | 0.49 | 0.49 | 94 | 1001.9 | |
| 20260903174125 | 54 | 327 | 1.0 | 1.0 | 0.00 | 0.49 | 0.49 | 92 | 1002.0 |
| 20260903173037 | 54 | 350 | 1.0 | 1.0 | 0.00 | 0.49 | 0.49 | 90 | 1001.8 |
| 20260903172101 | 54 | 24 | 1.0 | 3.0 | 0.00 | 0.49 | 0.49 | 89 | 1001.7 |
| 20260903171145 | 55 | 300 | 1.0 | 2.0 | 0.00 | 0.49 | 0.49 | 90 | 1001.8 |
| 20260903170057 | 55 | 358 | 1.0 | 3.0 | 0.00 | 0.49 | 0.49 | 90 | 1001.7 |
| 20260903165100 | 55 | 356 | 2.0 | 3.0 | 0.00 | 0.49 | 0.49 | 90 | 1001.7 |
| 20260903164124 | 55 | 339 | 2.0 | 3.0 | 0.00 | 0.49 | 0.49 | 90 | 1001.8 |
| 20260903163056 | 55 | 354 | 1.0 | 2.0 | 0.00 | 0.49 | 0.49 | 89 | 1001.6 |
| 20260903162100 | 55 | 15 | 1.0 | 2.0 | 0.00 | 0.49 | 0.49 | 88 | 1001.6 |
| 20260903161124 | 55 | 353 | 2.0 | 3.0 | 0.00 | 0.49 | 0.49 | 87 | 1001.8 |
| 20260903160036 | 56 | 352 | 1.0 | 1.0 | 0.00 | 0.49 | 0.49 | 87 | 1001.8 |
| 20260903155100 | 56 | 328 | 0.0 | 1.0 | 0.00 | 0.49 | 0.49 | 84 | 1001.9 |
| 20260903154124 | 56 | 0.0 | 0.0 | 0.00 | 0.49 | 0.49 | 85 | 1001.7 | |
| 20260903153036 | 56 | 8 | 0.0 | 2.0 | 0.00 | 0.49 | 0.49 | 85 | 1001.7 |
| 20260903152120 | 56 | 353 | 1.0 | 2.0 | 0.00 | 0.49 | 0.49 | 83 | 1001.7 |
| 20260903151124 | 56 | 7 | 1.0 | 3.0 | 0.00 | 0.49 | 0.49 | 83 | 1001.7 |
| 20260903150056 | 57 | 46 | 2.0 | 3.0 | 0.00 | 0.49 | 0.49 | 81 | 1001.7 |
| 20260903145100 | 56 | 35 | 2.0 | 3.0 | 0.00 | 0.49 | 0.49 | 81 | 1001.7 |
| 20260903144124 | 57 | 36 | 1.0 | 2.0 | 0.00 | 0.49 | 0.49 | 81 | 1001.7 |
| 20260903143036 | 57 | 35 | 1.0 | 2.0 | 0.00 | 0.49 | 0.49 | 83 | 1001.6 |
| 20260903142120 | 56 | 355 | 1.0 | 1.0 | 0.00 | 0.49 | 0.49 | 83 | 1001.3 |
| 20260903141124 | 57 | 333 | 1.0 | 1.0 | 0.00 | 0.49 | 0.49 | 82 | 1001.5 |
| 20260903140056 | 57 | 54 | 1.0 | 2.0 | 0.00 | 0.49 | 0.49 | 81 | 1001.3 |
| 20260903135100 | 57 | 343 | 2.0 | 3.0 | 0.00 | 0.49 | 0.49 | 80 | 1001.5 |
| 20260903134144 | 58 | 41 | 2.0 | 2.0 | 0.00 | 0.49 | 0.49 | 77 | 1001.5 |
| 20260903133056 | 59 | 5 | 1.0 | 2.0 | 0.00 | 0.49 | 0.49 | 76 | 1001.6 |
| 20260903132120 | 58 | 48 | 2.0 | 3.0 | 0.00 | 0.49 | 0.49 | 77 | 1001.2 |
| 20260903131124 | 58 | 350 | 2.0 | 5.0 | 0.00 | 0.49 | 0.49 | 78 | 1001.5 |
| 20260903130036 | 57 | 43 | 2.0 | 3.0 | 0.00 | 0.49 | 0.49 | 79 | 1001.2 |
| 20260903125100 | 58 | 35 | 1.0 | 4.0 | 0.00 | 0.49 | 0.49 | 78 | 1001.4 |
| 20260903124123 | 58 | 54 | 2.0 | 5.0 | 0.00 | 0.49 | 0.49 | 76 | 1001.3 |
| 20260903123036 | 58 | 335 | 1.0 | 4.0 | 0.00 | 0.49 | 0.49 | 77 | 1001.1 |
| 20260903122100 | 58 | 90 | 2.0 | 3.0 | 0.00 | 0.49 | 0.49 | 76 | 1001.0 |
| 20260903121144 | 58 | 358 | 2.0 | 4.0 | 0.00 | 0.49 | 0.49 | 79 | 1001.1 |
| 20260903120036 | 57 | 272 | 3.0 | 7.0 | 0.00 | 0.49 | 0.49 | 81 | 1001.0 |
| 20260903115100 | 56 | 32 | 2.0 | 5.0 | 0.00 | 0.49 | 0.49 | 84 | 1000.9 |
| 20260903114124 | 57 | 27 | 2.0 | 3.0 | 0.00 | 0.49 | 0.49 | 82 | 1000.8 |
| 20260903113056 | 57 | 2 | 1.0 | 2.0 | 0.00 | 0.49 | 0.49 | 81 | 1000.7 |
| 20260903112100 | 56 | 354 | 1.0 | 2.0 | 0.00 | 0.49 | 0.49 | 82 | 1000.7 |
| 20260903111124 | 57 | 92 | 2.0 | 3.0 | 0.00 | 0.49 | 0.49 | 82 | 1000.6 |
| 20260903110036 | 56 | 44 | 1.0 | 2.0 | 0.00 | 0.49 | 0.49 | 82 | 1000.8 |
| 20260903105101 | 55 | 300 | 0.0 | 1.0 | 0.00 | 0.49 | 0.49 | 87 | 1000.7 |
| 20260903104145 | 55 | 77 | 1.0 | 2.0 | 0.00 | 0.49 | 0.49 | 84 | 1000.5 |
| 20260903103037 | 55 | 0.0 | 0.0 | 0.00 | 0.50 | 0.49 | 83 | 1000.5 | |
| 20260903102101 | 57 | 0.0 | 0.0 | 0.00 | 0.51 | 0.49 | 82 | 1000.4 | |
| 20260903101125 | 56 | 6 | 1.0 | 3.0 | 0.00 | 0.51 | 0.49 | 84 | 1000.5 |
| 20260903100037 | 55 | 0.0 | 0.0 | 0.00 | 0.51 | 0.49 | 86 | 1000.4 | |
| 20260903095121 | 56 | 92 | 2.0 | 3.0 | 0.00 | 0.51 | 0.49 | 83 | 1000.2 |
| 20260903094145 | 55 | 110 | 3.0 | 4.0 | 0.00 | 0.51 | 0.49 | 86 | 1000.3 |
| 20260903093037 | 54 | 120 | 1.0 | 2.0 | 0.00 | 0.51 | 0.49 | 90 | 1000.3 |
| 20260903092101 | 54 | 102 | 0.0 | 2.0 | 0.00 | 0.51 | 0.49 | 93 | 1000.2 |
| 20260903091125 | 54 | 61 | 1.0 | 2.0 | 0.00 | 0.51 | 0.49 | 93 | 1000.1 |
| 20260903090037 | 54 | 94 | 1.0 | 2.0 | 0.00 | 0.51 | 0.49 | 93 | 1000.0 |
| 20260903085101 | 54 | 0.0 | 0.0 | 0.00 | 0.51 | 0.49 | 92 | 1000.1 | |
| 20260903084125 | 54 | 60 | 0.0 | 1.0 | 0.00 | 0.51 | 0.49 | 90 | 999.9 |
| 20260903083037 | 54 | 0.0 | 0.0 | 0.00 | 0.51 | 0.49 | 91 | 999.7 | |
| 20260903082101 | 53 | 0.0 | 0.0 | 0.00 | 0.51 | 0.49 | 94 | 999.7 | |
| 20260903081124 | 52 | 0.0 | 0.0 | 0.00 | 0.51 | 0.49 | 95 | 999.8 | |
| 20260903080056 | 52 | 0.0 | 0.0 | 0.06 | 0.51 | 0.49 | 96 | 999.7 | |
| 20260903075100 | 52 | 157 | 1.0 | 1.0 | 0.06 | 0.51 | 0.49 | 97 | 999.5 |
| 20260903074144 | 51 | 149 | 2.0 | 3.0 | 0.06 | 0.52 | 0.49 | 97 | 999.6 |
| 20260903073056 | 51 | 147 | 2.0 | 2.0 | 0.06 | 0.52 | 0.49 | 98 | 999.6 |
| 20260903072100 | 51 | 151 | 2.0 | 2.0 | 0.04 | 0.50 | 0.47 | 97 | 999.4 |
| 20260903071125 | 52 | 156 | 2.0 | 2.0 | 0.01 | 0.47 | 0.44 | 96 | 999.5 |
| 20260903070056 | 52 | 162 | 0.0 | 1.0 | 0.00 | 0.46 | 0.43 | 96 | 999.6 |
| 20260903065101 | 52 | 0.0 | 0.0 | 0.00 | 0.46 | 0.43 | 96 | 999.6 | |
| 20260903064124 | 52 | 0.0 | 0.0 | 0.00 | 0.46 | 0.43 | 96 | 999.7 | |
| 20260903063037 | 52 | 0.0 | 0.0 | 0.00 | 0.46 | 0.43 | 96 | 999.7 | |
| 20260903062141 | 52 | 0.0 | 0.0 | 0.00 | 0.46 | 0.43 | 96 | 999.6 | |
| 20260903061124 | 51 | 0.0 | 0.0 | 0.00 | 0.46 | 0.43 | 96 | 999.5 | |
| 20260903060056 | 51 | 0.0 | 0.0 | 0.01 | 0.46 | 0.43 | 96 | 999.7 | |
| 20260903055100 | 51 | 91 | 1.0 | 1.0 | 0.01 | 0.46 | 0.43 | 98 | 999.6 |
| 20260903054125 | 51 | 152 | 1.0 | 2.0 | 0.01 | 0.47 | 0.43 | 98 | 999.6 |
| 20260903053036 | 50 | 159 | 1.0 | 2.0 | 0.01 | 0.47 | 0.43 | 98 | 999.7 |
| 20260903052120 | 50 | 0.0 | 0.0 | 0.01 | 0.47 | 0.43 | 98 | 999.4 | |
| 20260903051124 | 50 | 0.0 | 0.0 | 0.00 | 0.48 | 0.42 | 98 | 999.5 | |
| 20260903050036 | 50 | 0.0 | 0.0 | 0.05 | 0.51 | 0.42 | 98 | 999.5 | |
| 20260903045100 | 50 | 0.0 | 0.0 | 0.05 | 0.53 | 0.42 | 98 | 999.5 | |
| 20260903044204 | 50 | 0.0 | 0.0 | 0.04 | 0.52 | 0.41 | 97 | 999.4 | |
| 20260903043036 | 50 | 187 | 1.0 | 2.0 | 0.04 | 0.52 | 0.41 | 97 | 999.6 |
| 20260903042100 | 50 | 207 | 1.0 | 1.0 | 0.03 | 0.51 | 0.40 | 97 | 999.8 |
| 20260903041123 | 50 | 182 | 0.0 | 1.0 | 0.01 | 0.49 | 0.38 | 97 | 999.7 |
| 20260903040036 | 50 | 0.0 | 0.0 | 0.13 | 0.48 | 0.37 | 98 | 999.8 | |
| 20260903035059 | 50 | 294 | 0.0 | 1.0 | 0.12 | 0.47 | 0.36 | 98 | 999.9 |